SCO15GH EGPH-EGCC

Flight info

Callsign SCO15GH
Flight time 0h 35m
Altitude 23000
Route GOSAM P600 FENIK L612 LAKEY
Aircraft B738/M-SDE2E3FGHIRWXY/LB1

Departure

Time 2026-05-04 21:32
Airport Edinburgh Airport (EGPH)

Arrival

Time 2026-05-04 22:07
Airport Manchester Airport (EGCC)
Time Latitude Longitude Altitude Speed Heading
2026-05-04 21:16 55.94702 -3.36608 115 ft 0 kts 89°
2026-05-04 21:25 55.94702 -3.36634 111 ft 2 kts 89°
2026-05-04 21:25 55.94702 -3.36664 113 ft 2 kts 84°
2026-05-04 21:25 55.94698 -3.36692 111 ft 2 kts 43°
2026-05-04 21:26 55.94688 -3.36701 111 ft 1 kts 357°
2026-05-04 21:26 55.94684 -3.36701 111 ft 0 kts 354°
2026-05-04 21:27 55.94697 -3.36705 111 ft 8 kts 348°
2026-05-04 21:28 55.94788 -3.36777 114 ft 16 kts 350°
2026-05-04 21:28 55.94894 -3.36803 114 ft 15 kts 329°
2026-05-04 21:28 55.94974 -3.36757 114 ft 14 kts 59°
2026-05-04 21:28 55.95041 -3.36558 113 ft 24 kts 59°
2026-05-04 21:29 55.95131 -3.36293 115 ft 24 kts 59°
2026-05-04 21:29 55.95215 -3.36044 115 ft 23 kts 59°
2026-05-04 21:29 55.95296 -3.35804 115 ft 22 kts 59°
2026-05-04 21:29 55.95374 -3.35574 114 ft 22 kts 59°
2026-05-04 21:30 55.95438 -3.35404 114 ft 11 kts 27°
2026-05-04 21:30 55.95491 -3.35432 115 ft 0 kts 329°
2026-05-04 21:30 55.95502 -3.35444 111 ft 9 kts 329°
2026-05-04 21:31 55.95540 -3.35654 112 ft 11 kts 238°
2026-05-04 21:31 55.95433 -3.35973 110 ft 64 kts 239°
2026-05-04 21:31 55.95071 -3.37038 112 ft 133 kts 238°
2026-05-04 21:32 55.94538 -3.38597 588 ft 153 kts 240°
2026-05-04 21:32 55.93955 -3.40290 1370 ft 163 kts 242°
2026-05-04 21:32 55.93366 -3.41999 2233 ft 169 kts 242°
2026-05-04 21:32 55.92684 -3.43987 2582 ft 203 kts 242°
2026-05-04 21:33 55.91897 -3.46272 2911 ft 226 kts 241°
2026-05-04 21:33 55.91024 -3.48801 3255 ft 249 kts 240°
2026-05-04 21:33 55.90326 -3.51657 4065 ft 252 kts 260°
2026-05-04 21:33 55.90039 -3.54756 5058 ft 256 kts 262°
2026-05-04 21:34 55.89746 -3.57870 5702 ft 258 kts 262°
2026-05-04 21:34 55.89434 -3.61061 6432 ft 263 kts 262°
2026-05-04 21:34 55.89114 -3.64279 7406 ft 264 kts 261°
2026-05-04 21:34 55.88792 -3.67513 8350 ft 265 kts 261°
2026-05-04 21:35 55.88465 -3.70764 9276 ft 268 kts 261°
2026-05-04 21:35 55.88134 -3.74038 10183 ft 270 kts 261°
2026-05-04 21:35 55.87795 -3.77396 10610 ft 291 kts 261°
2026-05-04 21:35 55.87424 -3.81102 10882 ft 314 kts 261°
2026-05-04 21:36 55.87037 -3.84997 11530 ft 322 kts 261°
2026-05-04 21:36 55.86642 -3.88957 12388 ft 325 kts 261°
2026-05-04 21:36 55.86243 -3.92947 13291 ft 328 kts 261°
2026-05-04 21:36 55.85842 -3.96962 14144 ft 332 kts 261°
2026-05-04 21:37 55.85432 -4.01041 14962 ft 336 kts 261°
2026-05-04 21:37 55.85017 -4.05149 15818 ft 339 kts 261°
2026-05-04 21:37 55.84579 -4.09241 16659 ft 342 kts 256°
2026-05-04 21:37 55.83457 -4.13006 17436 ft 353 kts 230°
2026-05-04 21:38 55.81561 -4.15863 18317 ft 358 kts 222°
2026-05-04 21:38 55.79682 -4.18812 19000 ft 360 kts 227°
2026-05-04 21:38 55.77850 -4.21880 19693 ft 366 kts 221°
2026-05-04 21:38 55.75770 -4.24459 20411 ft 370 kts 217°
2026-05-04 21:39 55.73422 -4.26471 21064 ft 383 kts 198°
2026-05-04 21:39 55.70744 -4.26855 21862 ft 391 kts 180°
2026-05-04 21:39 55.68061 -4.25888 22678 ft 399 kts 163°
2026-05-04 21:39 55.65552 -4.23693 23055 ft 402 kts 155°
2026-05-04 21:40 55.63073 -4.21205 23061 ft 418 kts 154°
2026-05-04 21:40 55.60535 -4.18606 23080 ft 432 kts 154°
2026-05-04 21:40 55.57879 -4.15918 23077 ft 445 kts 154°
2026-05-04 21:40 55.55144 -4.13202 23080 ft 457 kts 154°
2026-05-04 21:41 55.52324 -4.10444 23072 ft 467 kts 154°
2026-05-04 21:41 55.49489 -4.07692 23071 ft 475 kts 154°
2026-05-04 21:41 55.46577 -4.04866 23056 ft 479 kts 154°
2026-05-04 21:41 55.43671 -4.02043 23051 ft 475 kts 154°
2026-05-04 21:42 55.40769 -3.99225 23059 ft 475 kts 154°
2026-05-04 21:42 55.37869 -3.96413 23055 ft 474 kts 154°
2026-05-04 21:42 55.34979 -3.93616 23052 ft 474 kts 154°
2026-05-04 21:42 55.32075 -3.90810 23062 ft 473 kts 154°
2026-05-04 21:43 55.29233 -3.88069 23056 ft 473 kts 154°
2026-05-04 21:43 55.26345 -3.85288 23062 ft 473 kts 154°
2026-05-04 21:43 55.23437 -3.82494 23063 ft 474 kts 154°
2026-05-04 21:43 55.20551 -3.79725 23062 ft 474 kts 154°
2026-05-04 21:44 55.17659 -3.76956 23062 ft 474 kts 154°
2026-05-04 21:44 55.14759 -3.74181 23068 ft 474 kts 154°
2026-05-04 21:44 55.11895 -3.71446 23062 ft 474 kts 154°
2026-05-04 21:44 55.08992 -3.68676 23060 ft 474 kts 154°
2026-05-04 21:45 55.06096 -3.65917 23063 ft 474 kts 154°
2026-05-04 21:45 55.03200 -3.63162 23062 ft 474 kts 154°
2026-05-04 21:45 55.00288 -3.60397 23057 ft 474 kts 154°
2026-05-04 21:45 54.97415 -3.57676 23062 ft 474 kts 154°
2026-05-04 21:46 54.94516 -3.54947 23058 ft 473 kts 154°
2026-05-04 21:46 54.91603 -3.52213 23060 ft 473 kts 154°
2026-05-04 21:46 54.88698 -3.49493 23062 ft 473 kts 154°
2026-05-04 21:46 54.85840 -3.46819 23061 ft 472 kts 154°
2026-05-04 21:47 54.82938 -3.44107 23059 ft 472 kts 154°
2026-05-04 21:47 54.80029 -3.41390 23065 ft 472 kts 153°
2026-05-04 21:47 54.77135 -3.38691 23068 ft 472 kts 153°
2026-05-04 21:47 54.74279 -3.36034 23062 ft 472 kts 153°
2026-05-04 21:48 54.71364 -3.33388 23068 ft 471 kts 156°
2026-05-04 21:48 54.68383 -3.31029 23064 ft 471 kts 158°
2026-05-04 21:48 54.65366 -3.28781 23067 ft 470 kts 158°
2026-05-04 21:48 54.62342 -3.26571 23067 ft 471 kts 159°
2026-05-04 21:49 54.59317 -3.24361 23071 ft 471 kts 158°
2026-05-04 21:49 54.56344 -3.22171 23069 ft 471 kts 158°
2026-05-04 21:49 54.53332 -3.19937 23066 ft 471 kts 158°
2026-05-04 21:49 54.50317 -3.17691 23066 ft 471 kts 158°
2026-05-04 21:50 54.47360 -3.15483 23042 ft 450 kts 158°
2026-05-04 21:50 54.44593 -3.13416 23048 ft 430 kts 158°
2026-05-04 21:50 54.41878 -3.11394 23061 ft 423 kts 158°
2026-05-04 21:50 54.39171 -3.09385 23074 ft 424 kts 158°
2026-05-04 21:51 54.36445 -3.07365 22699 ft 427 kts 158°
2026-05-04 21:51 54.33741 -3.05364 22179 ft 420 kts 158°
2026-05-04 21:51 54.31063 -3.03383 21617 ft 414 kts 158°
2026-05-04 21:51 54.28460 -3.01460 21032 ft 409 kts 158°
2026-05-04 21:52 54.25848 -2.99535 20442 ft 405 kts 158°
2026-05-04 21:52 54.23276 -2.97556 19878 ft 401 kts 153°
2026-05-04 21:52 54.20921 -2.95128 19373 ft 397 kts 148°
2026-05-04 21:52 54.18633 -2.92505 18873 ft 394 kts 147°
2026-05-04 21:53 54.16375 -2.89861 18361 ft 392 kts 147°
2026-05-04 21:53 54.14122 -2.87240 17792 ft 389 kts 147°
2026-05-04 21:53 54.11877 -2.84664 17246 ft 386 kts 148°
2026-05-04 21:53 54.09648 -2.82139 16731 ft 383 kts 148°
2026-05-04 21:54 54.07455 -2.79675 16223 ft 380 kts 148°
2026-05-04 21:54 54.05238 -2.77198 15739 ft 378 kts 148°
2026-05-04 21:54 54.03043 -2.74753 15251 ft 376 kts 148°
2026-05-04 21:54 54.00857 -2.72323 14770 ft 374 kts 148°
2026-05-04 21:55 53.98702 -2.69930 14292 ft 372 kts 148°
2026-05-04 21:55 53.96534 -2.67525 13809 ft 371 kts 148°
2026-05-04 21:55 53.94367 -2.65125 13279 ft 370 kts 148°
2026-05-04 21:55 53.92219 -2.62748 12767 ft 366 kts 148°
2026-05-04 21:56 53.90122 -2.60428 12277 ft 361 kts 148°
2026-05-04 21:56 53.88020 -2.58106 11813 ft 356 kts 148°
2026-05-04 21:56 53.85948 -2.55822 11354 ft 352 kts 148°
2026-05-04 21:56 53.83946 -2.53617 10897 ft 340 kts 148°
2026-05-04 21:57 53.81997 -2.51472 10458 ft 328 kts 148°
2026-05-04 21:57 53.80111 -2.49399 10045 ft 317 kts 148°
2026-05-04 21:57 53.78320 -2.47431 9988 ft 295 kts 148°
2026-05-04 21:57 53.76632 -2.45578 9449 ft 292 kts 148°
2026-05-04 21:58 53.74921 -2.43705 8924 ft 294 kts 148°
2026-05-04 21:58 53.73197 -2.41815 8489 ft 296 kts 148°
2026-05-04 21:58 53.71485 -2.39880 8127 ft 295 kts 147°
2026-05-04 21:58 53.69839 -2.37992 8075 ft 282 kts 147°
2026-05-04 21:59 53.68250 -2.36157 8051 ft 269 kts 147°
2026-05-04 21:59 53.66745 -2.34415 8051 ft 257 kts 147°
2026-05-04 21:59 53.65293 -2.32730 7872 ft 251 kts 147°
2026-05-04 21:59 53.63796 -2.30995 7153 ft 270 kts 147°
2026-05-04 22:00 53.62228 -2.29186 6750 ft 274 kts 147°
2026-05-04 22:00 53.60675 -2.27398 6475 ft 273 kts 147°
2026-05-04 22:00 53.59185 -2.25452 6157 ft 272 kts 135°
2026-05-04 22:00 53.57941 -2.23065 5866 ft 270 kts 130°
2026-05-04 22:01 53.56743 -2.20626 5570 ft 269 kts 130°
2026-05-04 22:01 53.55559 -2.18200 5262 ft 268 kts 130°
2026-05-04 22:01 53.54776 -2.16595 5076 ft 267 kts 130°
2026-05-04 22:01 53.53611 -2.14205 4780 ft 261 kts 130°
2026-05-04 22:02 53.52139 -2.11188 4644 ft 241 kts 130°
2026-05-04 22:02 53.51433 -2.09743 4577 ft 233 kts 130°
2026-05-04 22:02 53.50435 -2.07703 4465 ft 220 kts 130°
2026-05-04 22:02 53.49434 -2.05859 4166 ft 215 kts 147°
2026-05-04 22:03 53.48034 -2.05229 3756 ft 211 kts 189°
2026-05-04 22:03 53.46635 -2.05918 3477 ft 207 kts 200°
2026-05-04 22:03 53.45396 -2.07101 3178 ft 205 kts 227°
2026-05-04 22:03 53.44438 -2.08904 2927 ft 209 kts 231°
2026-05-04 22:04 53.43517 -2.10730 2652 ft 199 kts 232°
2026-05-04 22:04 53.42658 -2.12491 2370 ft 190 kts 233°
2026-05-04 22:04 53.41851 -2.14153 2106 ft 182 kts 233°
2026-05-04 22:04 53.41070 -2.15760 1869 ft 175 kts 234°
2026-05-04 22:05 53.40315 -2.17317 1636 ft 168 kts 233°
2026-05-04 22:05 53.39592 -2.18804 1413 ft 161 kts 233°
2026-05-04 22:05 53.38887 -2.20257 1203 ft 160 kts 233°
2026-05-04 22:05 53.38202 -2.21666 983 ft 148 kts 233°
2026-05-04 22:06 53.37574 -2.22959 736 ft 137 kts 232°
2026-05-04 22:06 53.36978 -2.24173 544 ft 131 kts 232°
2026-05-04 22:06 53.36413 -2.25343 394 ft 131 kts 231°
2026-05-04 22:06 53.35841 -2.26530 277 ft 129 kts 231°
2026-05-04 22:07 53.35332 -2.27586 249 ft 92 kts 231°
2026-05-04 22:07 53.35061 -2.28140 229 ft 35 kts 231°
2026-05-04 22:07 53.34956 -2.28499 223 ft 31 kts 257°
2026-05-04 22:07 53.34949 -2.28723 219 ft 14 kts 314°
2026-05-04 22:08 53.35032 -2.28719 222 ft 13 kts 47°
2026-05-04 22:08 53.35087 -2.28605 224 ft 11 kts 51°
2026-05-04 22:08 53.35122 -2.28530 227 ft 7 kts 52°
2026-05-04 22:08 53.35152 -2.28467 229 ft 7 kts 51°
2026-05-04 22:09 53.35181 -2.28405 230 ft 7 kts 51°
2026-05-04 22:09 53.35210 -2.28344 232 ft 7 kts 51°
2026-05-04 22:09 53.35266 -2.28233 237 ft 15 kts 46°
2026-05-04 22:09 53.35343 -2.28106 239 ft 15 kts 43°
2026-05-04 22:10 53.35418 -2.27984 243 ft 15 kts 45°
2026-05-04 22:10 53.35506 -2.27918 246 ft 14 kts
2026-05-04 22:10 53.35602 -2.27901 248 ft 13 kts
2026-05-04 22:10 53.35692 -2.27885 251 ft 13 kts
2026-05-04 22:11 53.35781 -2.27870 254 ft 13 kts
2026-05-04 22:11 53.35867 -2.27856 254 ft 12 kts
2026-05-04 22:11 53.35949 -2.27843 254 ft 6 kts
2026-05-04 22:11 53.35952 -2.27844 254 ft 1 kts 355°
2026-05-04 22:12 53.36004 -2.27926 254 ft 17 kts 314°
2026-05-04 22:12 53.36090 -2.28049 254 ft 15 kts 347°
2026-05-04 22:12 53.36186 -2.28054 254 ft 14 kts 322°
2026-05-04 22:12 53.36253 -2.28168 254 ft 13 kts 314°
2026-05-04 22:13 53.36316 -2.28277 254 ft 13 kts 314°
2026-05-04 22:13 53.36378 -2.28379 254 ft 13 kts 316°
2026-05-04 22:13 53.36440 -2.28480 254 ft 12 kts 315°
2026-05-04 22:13 53.36499 -2.28580 254 ft 12 kts 315°
2026-05-04 22:14 53.36545 -2.28657 254 ft 0 kts 315°
2026-05-04 22:14 53.36549 -2.28663 254 ft 7 kts 315°
2026-05-04 22:14 53.36566 -2.28704 254 ft 17 kts 296°